Regional Weather Roundup
Issued by NWS

Home | Current Version | Previous Version | Graphics & Text | Print | Product List | Glossary On
Versions: 1 2 3 4 5 6 7 8 9 10 11 12 13 14 15 16 17 18 19 20 21 22 23 24 25 26 27 28 29 30 31 32 33 34 35 36 37 38 39 40 41 42 43 44 45 46 47 48 49 50
000
ASUS43 KLSX 161307
RWRMO

WEATHER SUMMARY FOR MISSOURI
NATIONAL WEATHER SERVICE SPRINGFIELD MO
700 AM CST MON JAN 16 2017

NOTE: "FAIR" INDICATES FEW OR NO CLOUDS BELOW 12,000 FEET WITH NO
       SIGNIFICANT WEATHER AND/OR OBSTRUCTIONS TO VISIBILITY.
       CURRENT SKY AND/OR WEATHER CONDITIONS ARE NOT AVAILABLE FOR
       CHILLICOTHE AND FARMINGTON.

MOZ001>031-035>038-043-044-053-054-161400-
...NORTHERN AND WESTERN MISSOURI...

CITY           SKY/WX    TMP DP  RH WIND       PRES   REMARKS
KANSAS CTY INT LGT RAIN  35  33  92 E12       29.92F WCI  27
KANSAS C DTWN  CLOUDY    35  32  88 E10       29.92F WCI  27
LEE`S SUMMIT   CLOUDY    36  32  85 E12       29.91F WCI  28
ST JOSEPH      LGT RAIN  33  33 100 E7        29.96F WCI  27
CHILLICOTHE      N/A     34  33  96 VRB6      30.02F WCI  29
KIRKSVILLE     FRZ RAIN  33  32  96 E12       30.06F FOG     WCI  24

$$
MOZ066>068-077>081-088>096-101>105-161400-
...SOUTHWEST MISSOURI...

CITY           SKY/WX    TMP DP  RH WIND       PRES   REMARKS
SPRINGFIELD    CLOUDY    49  48  97 SE22G28   29.92F
JOPLIN         PTCLDY    52  51  97 SE18      29.86R
BRANSON        FOG       43  43 100 SE13      29.98F VSB 1/16

$$
MOZ032>034-039>042-045>050-055>058-069>072-161400-
...CENTRAL MISSOURI...

CITY           SKY/WX    TMP DP  RH WIND       PRES   REMARKS
COLUMBIA       LGT RAIN  39  39 100 E13       30.02F
JEFFERSON CITY LGT RAIN  41  40  96 E8        30.04F
ROLLA          LGT RAIN  39  39 100 SE8       30.03F VSB 1
SEDALIA        LGT RAIN  43  42  97 E13       29.96F FOG
WHITEMAN AFB   CLOUDY    42  42 100 E12       29.92F
WARRENSBURG    CLOUDY    39  37  93 NE5       29.94S FOG
OSAGE BEACH    LGT RAIN  46  46 100 E6        30.00F

$$
MOZ051-052-059>065-161400-
...EAST CENTRAL MISSOURI...

CITY           SKY/WX    TMP DP  RH WIND       PRES   REMARKS
ST LOUIS INTL  FOG       40  38  93 E9        30.12F VSB 1/2
SPIRIT OF STL  CLOUDY    40  40 100 E7        30.12F FOG
ST CHARLES     FOG       38  38 100 E9        30.12F VSB 1

$$
MOZ072>076-082>087-097>100-106>115-161400-
...SOUTH CENTRAL AND SOUTHEAST MISSOURI...

CITY           SKY/WX    TMP DP  RH WIND       PRES   REMARKS
CAPE GIRARDEAU CLOUDY    43  42  97 E3        30.14F FOG
FARMINGTON     LGT RAIN  41  40  96 CALM      30.12F VSB 1/4
POPLAR BLUFF   FOG       43  43 100 NE6       30.13S VSB 1/4
WEST PLAINS    LGT RAIN  44  44 100 SE7       30.07F VSB 1/2

$$



USA.gov is the U.S. government's official web portal to all federal, state and local government web resources and services.